Jackson, KY

4:56 AM EDT on July 24, 2017 (GMT -0400)
Carroll

Weather History for KJKL - May, 2012

Change the Weather History Date:

Tuesday, May 29, 2012

  Actual Average Record
Temperature  
Mean Temperature 74 °F 68 °F  
Max Temperature 83 °F 77 °F 89 °F (1987)
Min Temperature 65 °F 58 °F 44 °F (1984)
Degree Days  
Heating Degree Days 0 2  
Month to date heating degree days 26 98  
Since 1 July heating degree days 3327 4219  
Cooling Degree Days 9 4  
Month to date cooling degree days 148 83  
Year to date cooling degree days 238 129  
Growing Degree Days 24 (Base 50)    
Moisture  
Dew Point 66 °F    
Average Humidity 78    
Maximum Humidity 93    
Minimum Humidity 62    
Precipitation  
Precipitation 0.39 in 0.18 in 1.40 in (1992)
Month to date precipitation 4.20 4.85  
Year to date precipitation 19.70 20.16  
Snow  
Snow 0.00 in 0.00 in - ()
Month to date snowfall 0.0 0.0  
Since 1 July snowfall 14.2 23.5  
Snow Depth 0.00 in    
Sea Level Pressure  
Sea Level Pressure 29.90 in    
Wind  
Wind Speed 2 mph (West)    
Max Wind Speed 15 mph    
Max Gust Speed 25 mph    
Visibility 6 miles    
Events Fog , Rain , Thunderstorm    
T = Trace of Precipitation, MM = Missing Value Source: NWS Daily Summary

Daily Weather History Graph

Daily Weather History Graph

Search for Another Location

Airport or City:

Trip Planner

Search our weather history database for the weather conditions in past years. The results will help you decide how hot, cold, wet, or windy it might be!

Date:

Astronomy

May. 29, 2012 Rise Set
Actual Time 6:14 AM EDT 8:47 PM EDT
Civil Twilight 5:44 AM EDT 9:17 PM EDT
Nautical Twilight 5:06 AM EDT 9:55 PM EDT
Astronomical Twilight 4:24 AM EDT 10:37 PM EDT
Moon 2:23 PM EDT (5/29) 1:59 AM EDT (5/29)
Length of Visible Light 15h 33m
Length of Day
14h 32m
First Quarter, 59% of the Moon is Illuminated
May 29
First Quarter
Jun 4
Full
Jun 11
Last Quarter
Jun 19
New
Jun 26
First Quarter

Hourly Weather History & Observations

Time (EDT) Temp. Heat Index Dew Point Humidity Pressure Visibility Wind Dir Wind Speed Gust Speed Precip Events Conditions
12:53 AM 73.0 °F - 68.0 °F 84% 29.89 in 10.0 mi South 3.5 mph - N/A   Clear
1:53 AM 73.9 °F - 64.0 °F 71% 29.88 in 10.0 mi Variable 3.5 mph - N/A   Clear
2:53 AM 73.0 °F - 63.0 °F 71% 29.88 in 10.0 mi Variable 3.5 mph - N/A   Clear
3:53 AM 72.0 °F - 63.0 °F 73% 29.87 in 10.0 mi Calm Calm - N/A   Clear
4:53 AM 70.0 °F - 62.1 °F 76% 29.87 in 10.0 mi Calm Calm - N/A   Clear
5:53 AM 70.0 °F - 61.0 °F 73% 29.88 in 10.0 mi Calm Calm - N/A   Clear
6:53 AM 71.1 °F - 62.1 °F 73% 29.90 in 10.0 mi Calm Calm - N/A   Mostly Cloudy
7:53 AM 72.0 °F - 63.0 °F 73% 29.89 in 10.0 mi Calm Calm - N/A   Partly Cloudy
8:53 AM 75.0 °F - 64.0 °F 69% 29.90 in 10.0 mi Calm Calm - N/A   Clear
9:53 AM 78.1 °F - 66.0 °F 66% 29.89 in 10.0 mi Calm Calm - N/A   Clear
10:53 AM 80.1 °F 82.1 °F 66.0 °F 62% 29.88 in 10.0 mi Calm Calm - N/A   Scattered Clouds
11:39 AM 82.4 °F 84.6 °F 66.2 °F 58% 29.94 in 10.0 mi Variable 3.5 mph - N/A Thunderstorm Mostly Cloudy
11:53 AM 78.1 °F - 64.9 °F 64% 29.90 in 10.0 mi Variable 3.5 mph - N/A Thunderstorm Overcast
12:11 PM 71.6 °F - 66.2 °F 83% 29.96 in 1.0 mi West 12.7 mph 24.2 mph 0.00 in Rain , Thunderstorm Thunderstorms and Rain
12:18 PM 69.8 °F - 64.4 °F 83% 29.95 in 0.5 mi West 11.5 mph 23.0 mph 0.18 in Fog , Rain , Thunderstorm Heavy Thunderstorms and Rain
12:29 PM 69.8 °F - 66.2 °F 88% 29.95 in 2.0 mi West 9.2 mph 18.4 mph 0.28 in Rain , Thunderstorm Light Thunderstorms and Rain
12:36 PM 69.8 °F - 66.2 °F 88% 29.94 in 10.0 mi WNW 6.9 mph - 0.28 in Thunderstorm Overcast
12:53 PM 71.1 °F - 68.0 °F 90% 29.90 in 10.0 mi Variable 5.8 mph - 0.28 in   Overcast
1:39 PM 71.6 °F - 66.2 °F 83% 29.95 in 10.0 mi WNW 6.9 mph - 0.00 in   Mostly Cloudy
1:53 PM 70.0 °F - 66.9 °F 90% 29.90 in 5.0 mi Variable 4.6 mph - 0.01 in Rain Light Rain
2:03 PM 69.8 °F - 66.2 °F 88% 29.93 in 5.0 mi WNW 4.6 mph - 0.01 in Rain Light Rain
2:41 PM 71.6 °F - 69.8 °F 94% 29.93 in 8.0 mi Variable 4.6 mph - 0.02 in   Mostly Cloudy
2:53 PM 73.0 °F - 69.1 °F 87% 29.89 in 10.0 mi Variable 3.5 mph - 0.02 in   Mostly Cloudy
3:08 PM 73.4 °F - 69.8 °F 88% 29.93 in 10.0 mi Calm Calm - N/A   Mostly Cloudy
3:17 PM 73.4 °F - 69.8 °F 88% 29.94 in 10.0 mi Calm Calm - N/A   Mostly Cloudy
3:37 PM 69.8 °F - 66.2 °F 88% 29.94 in 2.0 mi Variable 4.6 mph - 0.01 in Rain Heavy Rain
3:40 PM 69.8 °F - 66.2 °F 88% 29.94 in 1.8 mi NW 3.5 mph - 0.03 in Rain Rain
3:42 PM 69.8 °F - 66.2 °F 88% 29.94 in 2.0 mi Variable 3.5 mph - 0.03 in Rain Light Rain
3:47 PM 71.6 °F - 68.0 °F 88% 29.93 in 5.0 mi Calm Calm - 0.03 in Rain Light Rain
3:53 PM 71.1 °F - 66.9 °F 87% 29.89 in 10.0 mi Calm Calm - 0.03 in   Overcast
4:06 PM 71.6 °F - 66.2 °F 83% 29.92 in 10.0 mi Calm Calm - 0.00 in Rain Light Rain
4:43 PM 69.8 °F - 66.2 °F 88% 29.90 in 2.5 mi Variable 3.5 mph - 0.04 in Rain Light Rain
4:51 PM 69.8 °F - 66.2 °F 88% 29.89 in 4.0 mi Calm Calm - 0.04 in Rain Light Rain
4:53 PM 69.1 °F - 66.9 °F 93% 29.85 in 4.0 mi SSE 4.6 mph - 0.04 in Rain Light Rain
5:23 PM 69.8 °F - 66.2 °F 88% 29.87 in 7.0 mi Calm Calm - 0.01 in   Mostly Cloudy
5:53 PM 69.1 °F - 64.9 °F 87% 29.84 in 9.0 mi SSE 4.6 mph - 0.01 in   Overcast
6:53 PM 71.1 °F - 66.9 °F 87% 29.82 in 9.0 mi Calm Calm - 0.00 in   Clear
7:53 PM 69.1 °F - 66.0 °F 90% 29.84 in 8.0 mi NW 3.5 mph - N/A   Scattered Clouds
8:26 PM 69.8 °F - 66.2 °F 88% 29.88 in 3.0 mi Calm Calm - N/A   Scattered Clouds
8:53 PM 68.0 °F - 64.9 °F 90% 29.85 in 7.0 mi Calm Calm - N/A   Partly Cloudy
9:53 PM 66.9 °F - 64.0 °F 90% 29.86 in 8.0 mi Calm Calm - N/A   Clear
10:26 PM 66.2 °F - 64.4 °F 94% 29.92 in 4.0 mi Calm Calm - N/A   Partly Cloudy
10:35 PM 66.2 °F - 64.4 °F 94% 29.91 in 1.5 mi Calm Calm - N/A   Scattered Clouds
10:37 PM 66.2 °F - 64.4 °F 94% 29.91 in 0.8 mi Calm Calm - N/A   Mist
10:53 PM 66.0 °F - 64.9 °F 96% 29.88 in 1.8 mi Calm Calm - N/A   Scattered Clouds
10:56 PM 66.2 °F - 64.4 °F 94% 29.92 in 3.0 mi Calm Calm - N/A   Scattered Clouds
11:18 PM 66.2 °F - 64.4 °F 94% 29.92 in 2.0 mi Calm Calm - N/A   Clear
11:29 PM 66.2 °F - 64.4 °F 94% 29.92 in 1.8 mi Calm Calm - N/A   Clear
11:35 PM 66.2 °F - 64.4 °F 94% 29.91 in 3.0 mi Calm Calm - N/A   Clear
11:45 PM 66.2 °F - 64.4 °F 94% 29.92 in 2.0 mi Calm Calm - N/A   Clear
11:50 PM 66.2 °F - 64.4 °F 94% 29.92 in 1.2 mi Calm Calm - N/A   Partly Cloudy
11:53 PM 66.0 °F - 64.0 °F 93% 29.88 in 0.5 mi Calm Calm - N/A Fog Fog